Location: Laan Hart van Zuid
(52.2563°N, 6.7904°E)
Time: 13:59:38
(UTC+01:00)

ARIANE 6 FM1 Upper Stage - Visible Passes

Search period start: 16 January 2026 00:00
Search period end: 26 January 2026 00:00
Orbit: 522 x 610 km, 62.0° (Epoch: 16 January)

Date Brightness Start Highest point End Pass type
(mag) Time Alt. Az. Time Alt. Az. Time Alt. Az.
21 Jan 5.2 20:13:17 10° SSW 20:13:51 14° SSW 20:13:51 14° SSW visible
22 Jan 4.5 18:36:46 10° SSE 18:38:40 14° SE 18:38:40 14° SE visible
22 Jan 4.8 20:13:23 10° SW 20:14:44 20° SW 20:14:44 20° SW visible
23 Jan 4.0 18:36:01 10° S 18:39:01 20° ESE 18:39:29 20° ESE visible
23 Jan 4.4 20:13:35 10° SW 20:15:32 27° WSW 20:15:32 27° WSW visible
24 Jan 3.7 18:35:36 10° S 18:39:03 27° SE 18:40:12 23° E visible
24 Jan 4.2 20:13:52 10° WSW 20:16:14 32° W 20:16:14 32° W visible
25 Jan 3.3 18:35:22 10° SSW 18:39:07 37° SE 18:40:50 25° E visible
25 Jan 4.2 20:14:13 10° WSW 20:16:52 34° WNW 20:16:52 34° WNW visible
